Radiation Dose at Monitoring Post of Fukushima Daini Nuclear Power Station
Date,Time,MP-1(microSv/h),MP-2(microSv/h),MP-3(microSv/h),MP-4(microSv/h),MP-5(microSv/h),MP-6(microSv/h),MP-7(microSv/h),Wind Direction,Wind Velocity(m/s),Rain
2022/04/09,00:00,0.157,0.142,0.226,0.218,0.221,0.124,0.078,south,5.2,No
2022/04/09,00:10,0.157,0.142,0.226,0.218,0.222,0.123,0.079,south,6.9,No
2022/04/09,00:20,0.156,0.142,0.225,0.218,0.221,0.123,0.079,south,8.0,No
2022/04/09,00:30,0.156,0.142,0.226,0.218,0.220,0.123,0.078,south-southwest,7.5,No
2022/04/09,00:40,0.156,0.141,0.225,0.216,0.221,0.123,0.079,south-southwest,7.3,No
2022/04/09,00:50,0.156,0.141,0.226,0.218,0.220,0.123,0.078,south,7.6,No
2022/04/09,01:00,0.157,0.141,0.225,0.218,0.221,0.124,0.077,south,8.6,No
2022/04/09,01:10,0.156,0.142,0.225,0.218,0.221,0.124,0.078,south,7.7,No
2022/04/09,01:20,0.157,0.142,0.226,0.217,0.220,0.123,0.079,south,7.8,No
2022/04/09,01:30,0.156,0.141,0.225,0.217,0.221,0.124,0.079,south-southwest,7.8,No
2022/04/09,01:40,0.156,0.141,0.225,0.216,0.222,0.124,0.078,south-southwest,8.6,No
2022/04/09,01:50,0.156,0.142,0.225,0.217,0.222,0.124,0.078,south-southwest,8.3,No
2022/04/09,02:00,0.157,0.142,0.226,0.218,0.221,0.124,0.078,south-southwest,7.7,No
2022/04/09,02:10,0.156,0.142,0.225,0.219,0.221,0.123,0.078,south-southwest,7.2,No
2022/04/09,02:20,0.155,0.141,0.226,0.218,0.222,0.123,0.078,south-southwest,6.3,No
2022/04/09,02:30,0.156,0.142,0.224,0.217,0.221,0.124,0.079,south-southwest,5.7,No
2022/04/09,02:40,0.156,0.142,0.225,0.218,0.222,0.123,0.079,south,5.7,No
2022/04/09,02:50,0.156,0.141,0.223,0.217,0.221,0.123,0.078,south,4.1,No
2022/04/09,03:00,0.156,0.141,0.226,0.218,0.221,0.124,0.079,south,4.4,No
2022/04/09,03:10,0.156,0.142,0.226,0.219,0.221,0.123,0.078,south,4.4,No
2022/04/09,03:20,0.156,0.142,0.226,0.218,0.221,0.124,0.078,south,4.9,No
2022/04/09,03:30,0.156,0.142,0.225,0.218,0.221,0.123,0.078,south,5.5,No
2022/04/09,03:40,0.156,0.142,0.226,0.218,0.222,0.124,0.079,south,5.1,No
2022/04/09,03:50,0.157,0.142,0.227,0.218,0.221,0.123,0.078,south,5.4,No
2022/04/09,04:00,0.155,0.143,0.226,0.217,0.221,0.123,0.079,south,6.2,No
2022/04/09,04:10,0.157,0.142,0.226,0.218,0.222,0.124,0.079,south,5.9,No
2022/04/09,04:20,0.156,0.143,0.225,0.218,0.222,0.123,0.079,south-southwest,6.1,No
2022/04/09,04:30,0.156,0.142,0.226,0.217,0.221,0.123,0.079,south-southwest,6.2,No
2022/04/09,04:40,0.157,0.142,0.226,0.218,0.222,0.123,0.079,south-southwest,7.1,No
2022/04/09,04:50,0.157,0.141,0.225,0.217,0.221,0.123,0.078,south-southwest,6.4,No
2022/04/09,05:00,0.156,0.142,0.226,0.218,0.221,0.123,0.078,south-southwest,6.5,No
2022/04/09,05:10,0.156,0.142,0.226,0.218,0.220,0.122,0.079,south-southwest,6.6,No
2022/04/09,05:20,0.157,0.142,0.225,0.219,0.221,0.124,0.079,south,6.1,No
2022/04/09,05:30,0.156,0.142,0.226,0.217,0.221,0.123,0.078,south,5.5,No
2022/04/09,05:40,0.156,0.143,0.225,0.218,0.222,0.122,0.079,south,4.1,No
2022/04/09,05:50,0.157,0.142,0.225,0.218,0.221,0.123,0.078,south,5.1,No
2022/04/09,06:00,0.157,0.143,0.226,0.218,0.221,0.123,0.079,south-southwest,5.2,No
2022/04/09,06:10,0.156,0.143,0.226,0.219,0.221,0.124,0.078,south,5.9,No
2022/04/09,06:20,0.157,0.142,0.225,0.218,0.221,0.123,0.079,south-southwest,5.8,No
2022/04/09,06:30,0.157,0.143,0.225,0.218,0.222,0.123,0.078,south-southwest,4.4,No
2022/04/09,06:40,0.157,0.142,0.225,0.219,0.220,0.124,0.078,south-southwest,4.3,No
2022/04/09,06:50,0.157,0.142,0.225,0.218,0.222,0.124,0.078,south-southwest,4.3,No
2022/04/09,07:00,0.156,0.142,0.225,0.217,0.222,0.124,0.079,south-southwest,5.0,No
2022/04/09,07:10,0.155,0.142,0.226,0.218,0.219,0.123,0.078,south-southwest,6.0,No
2022/04/09,07:20,0.156,0.142,0.225,0.217,0.222,0.123,0.078,south-southwest,4.7,No
2022/04/09,07:30,0.156,0.141,0.224,0.217,0.219,0.123,0.078,south-southwest,6.1,No
2022/04/09,07:40,0.155,0.141,0.223,0.216,0.222,0.123,0.078,south-southwest,7.4,No
2022/04/09,07:50,0.157,0.141,0.224,0.218,0.220,0.123,0.078,south-southwest,6.0,No
2022/04/09,08:00,0.156,0.142,0.222,0.215,0.221,0.124,0.078,south-southwest,6.0,No
2022/04/09,08:10,0.155,0.141,0.223,0.217,0.220,0.123,0.077,south,8.5,No
2022/04/09,08:20,0.155,0.141,0.225,0.215,0.222,0.123,0.078,south,6.8,No
2022/04/09,08:30,0.155,0.141,0.223,0.217,0.219,0.123,0.079,south,6.0,No
2022/04/09,08:40,0.156,0.141,0.223,0.217,0.221,0.123,0.078,south,6.9,No
2022/04/09,08:50,0.154,0.141,0.224,0.216,0.219,0.123,0.079,south,6.9,No
2022/04/09,09:00,0.155,0.140,0.222,0.218,0.220,0.123,0.078,south,7.4,No
2022/04/09,09:10,0.156,0.141,0.223,0.214,0.221,0.123,0.078,south,6.3,No
2022/04/09,09:20,0.154,0.141,0.225,0.215,0.219,0.123,0.078,south,5.5,No
2022/04/09,09:30,0.154,0.141,0.225,0.218,0.220,0.123,0.078,south-southeast,6.9,No
2022/04/09,09:40,0.156,0.141,0.223,0.216,0.220,0.123,0.078,south-southeast,6.9,No
2022/04/09,09:50,0.156,0.142,0.222,0.215,0.219,0.122,0.078,south-southeast,8.3,No
2022/04/09,10:00,0.154,0.141,0.225,0.218,0.220,0.123,0.078,south-southeast,9.0,No
2022/04/09,10:10,0.154,0.140,0.226,0.216,0.221,0.122,0.079,south-southeast,9.3,No
2022/04/09,10:20,0.156,0.142,0.225,0.215,0.219,0.123,0.079,south-southeast,10.6,No
2022/04/09,10:30,0.155,0.141,0.223,0.219,0.221,0.124,0.078,south-southeast,9.3,No
2022/04/09,10:40,0.155,0.141,0.226,0.217,0.220,0.123,0.079,south-southeast,9.4,No
2022/04/09,10:50,0.156,0.142,0.226,0.215,0.220,0.124,0.079,south-southeast,10.0,No
2022/04/09,11:00,0.156,0.141,0.225,0.219,0.221,0.123,0.078,south-southeast,10.5,No
2022/04/09,11:10,0.156,0.141,0.223,0.218,0.221,0.123,0.078,south-southeast,10.8,No
2022/04/09,11:20,0.153,0.141,0.224,0.216,0.220,0.124,0.078,south-southeast,11.4,No
2022/04/09,11:30,0.155,0.140,0.225,0.219,0.219,0.122,0.079,south-southeast,11.7,No
2022/04/09,11:40,0.156,0.141,0.225,0.217,0.221,0.124,0.079,south-southeast,12.1,No
2022/04/09,11:50,0.156,0.142,0.224,0.216,0.221,0.124,0.079,south-southeast,10.5,No
2022/04/09,12:00,0.154,0.140,0.224,0.218,0.219,0.122,0.079,south-southeast,11.1,No
2022/04/09,12:10,0.156,0.142,0.228,0.218,0.220,0.123,0.079,south,12.0,No
2022/04/09,12:20,0.156,0.143,0.226,0.218,0.223,0.123,0.078,south-southeast,11.7,No
2022/04/09,12:30,0.156,0.141,0.225,0.219,0.221,0.123,0.079,south-southeast,11.2,No
2022/04/09,12:40,0.155,0.142,0.223,0.219,0.219,0.123,0.079,south,10.9,No
2022/04/09,12:50,0.155,0.143,0.226,0.217,0.222,0.123,0.078,south-southeast,9.2,No
2022/04/09,13:00,0.156,0.140,0.227,0.218,0.222,0.123,0.079,south,12.8,No
2022/04/09,13:10,0.157,0.141,0.225,0.219,0.221,0.124,0.078,south,13.4,No
2022/04/09,13:20,0.156,0.142,0.224,0.218,0.218,0.125,0.079,south,11.5,No
2022/04/09,13:30,0.155,0.143,0.223,0.217,0.221,0.123,0.079,south,11.2,No
2022/04/09,13:40,0.156,0.141,0.229,0.219,0.222,0.123,0.078,south,13.2,No
2022/04/09,13:50,0.157,0.142,0.226,0.219,0.222,0.124,0.077,south-southeast,12.1,No
2022/04/09,14:00,0.155,0.143,0.224,0.217,0.218,0.124,0.078,south-southeast,11.4,No
2022/04/09,14:10,0.155,0.141,0.224,0.220,0.222,0.123,0.078,south,14.6,No
2022/04/09,14:20,0.157,0.142,0.226,0.220,0.221,0.124,0.078,south,11.7,No
2022/04/09,14:30,0.158,0.143,0.228,0.218,0.221,0.123,0.079,south,10.6,No
2022/04/09,14:40,0.156,0.141,0.225,0.219,0.220,0.123,0.079,south,13.0,No
2022/04/09,14:50,0.155,0.142,0.223,0.220,0.223,0.123,0.078,south,11.8,No
2022/04/09,15:00,0.156,0.142,0.227,0.217,0.222,0.123,0.078,south,11.4,No
2022/04/09,15:10,0.158,0.141,0.227,0.221,0.220,0.123,0.078,south,10.9,No
2022/04/09,15:20,0.156,0.143,0.225,0.217,0.221,0.124,0.079,south,10.3,No
2022/04/09,15:30,0.155,0.143,0.228,0.219,0.225,0.123,0.078,south,9.1,No
2022/04/09,15:40,0.158,0.142,0.227,0.219,0.222,0.124,0.079,south,8.9,No
2022/04/09,15:50,0.158,0.143,0.227,0.219,0.220,0.123,0.079,south,8.9,No
2022/04/09,16:00,0.156,0.142,0.227,0.220,0.221,0.125,0.079,south,7.5,No
2022/04/09,16:10,0.156,0.143,0.226,0.219,0.222,0.123,0.079,south-southwest,7.1,No
2022/04/09,16:20,0.157,0.142,0.228,0.218,0.222,0.123,0.079,south-southwest,5.9,No
2022/04/09,16:30,0.156,0.142,0.226,0.219,0.220,0.123,0.078,south-southwest,7.0,No
2022/04/09,16:40,0.158,0.143,0.228,0.221,0.219,0.124,0.079,south,6.6,No
2022/04/09,16:50,0.156,0.142,0.225,0.218,0.224,0.124,0.079,south,6.9,No
2022/04/09,17:00,0.157,0.142,0.228,0.219,0.222,0.123,0.078,south-southwest,6.2,No
2022/04/09,17:10,0.157,0.142,0.225,0.218,0.220,0.124,0.079,south,7.1,No
2022/04/09,17:20,0.157,0.143,0.226,0.219,0.223,0.124,0.078,south-southwest,7.9,No
2022/04/09,17:30,0.157,0.141,0.227,0.218,0.223,0.123,0.078,south,6.8,No
2022/04/09,17:40,0.156,0.143,0.227,0.220,0.223,0.124,0.078,south,7.1,No
2022/04/09,17:50,0.157,0.142,0.227,0.219,0.223,0.124,0.079,south,6.6,No
2022/04/09,18:00,0.155,0.142,0.227,0.220,0.223,0.124,0.078,south-southwest,6.4,No
2022/04/09,18:10,0.158,0.143,0.226,0.219,0.223,0.124,0.079,south-southwest,6.3,No
2022/04/09,18:20,0.155,0.142,0.227,0.220,0.221,0.125,0.078,south,5.5,No
2022/04/09,18:30,0.157,0.143,0.226,0.219,0.223,0.123,0.078,south,5.2,No
2022/04/09,18:40,0.156,0.142,0.228,0.219,0.222,0.124,0.079,south-southwest,5.7,No
2022/04/09,18:50,0.156,0.142,0.226,0.219,0.223,0.124,0.079,south,6.0,No
2022/04/09,19:00,0.156,0.143,0.227,0.220,0.222,0.124,0.079,south-southwest,6.3,No
2022/04/09,19:10,0.156,0.142,0.227,0.219,0.223,0.123,0.078,south-southwest,6.6,No
2022/04/09,19:20,0.157,0.143,0.227,0.219,0.222,0.124,0.079,south-southwest,5.5,No
2022/04/09,19:30,0.157,0.143,0.228,0.220,0.221,0.124,0.078,south-southwest,6.2,No
2022/04/09,19:40,0.157,0.142,0.226,0.219,0.224,0.125,0.079,southwest,5.1,No
2022/04/09,19:50,0.157,0.142,0.228,0.219,0.221,0.124,0.079,southwest,4.9,No
2022/04/09,20:00,0.157,0.143,0.227,0.219,0.223,0.124,0.079,west-southwest,4.6,No
2022/04/09,20:10,0.156,0.143,0.228,0.221,0.222,0.124,0.079,west-southwest,5.5,No
2022/04/09,20:20,0.157,0.144,0.228,0.220,0.224,0.124,0.079,west-southwest,4.9,No
2022/04/09,20:30,0.158,0.143,0.227,0.221,0.223,0.125,0.079,west-southwest,5.2,No
2022/04/09,20:40,0.158,0.143,0.228,0.220,0.222,0.124,0.080,west-southwest,4.1,No
2022/04/09,20:50,0.157,0.143,0.227,0.220,0.222,0.125,0.080,west,4.6,No
2022/04/09,21:00,0.157,0.143,0.227,0.221,0.223,0.124,0.080,west-southwest,5.0,No
2022/04/09,21:10,0.158,0.143,0.229,0.218,0.223,0.125,0.079,west-southwest,5.0,No
2022/04/09,21:20,0.157,0.143,0.228,0.221,0.220,0.125,0.079,west,4.3,No
2022/04/09,21:30,0.158,0.143,0.227,0.219,0.223,0.125,0.080,west,4.3,No
2022/04/09,21:40,0.156,0.144,0.227,0.220,0.221,0.124,0.079,west,4.8,No
2022/04/09,21:50,0.157,0.143,0.227,0.221,0.224,0.124,0.080,west-southwest,6.6,No
2022/04/09,22:00,0.158,0.143,0.227,0.219,0.221,0.125,0.079,west-southwest,7.1,No
2022/04/09,22:10,0.156,0.142,0.226,0.220,0.223,0.125,0.079,west-southwest,5.5,No
2022/04/09,22:20,0.156,0.142,0.226,0.219,0.222,0.125,0.078,southwest,5.4,No
2022/04/09,22:30,0.157,0.143,0.227,0.220,0.222,0.125,0.079,southwest,5.1,No
2022/04/09,22:40,0.157,0.143,0.226,0.220,0.223,0.125,0.079,southwest,4.6,No
2022/04/09,22:50,0.159,0.143,0.227,0.219,0.223,0.124,0.079,southwest,4.6,No
2022/04/09,23:00,0.157,0.143,0.228,0.221,0.223,0.124,0.079,southwest,4.7,No
2022/04/09,23:10,0.157,0.142,0.227,0.220,0.222,0.125,0.079,southwest,3.8,No
2022/04/09,23:20,0.157,0.143,0.227,0.220,0.224,0.124,0.079,southwest,3.5,No
2022/04/09,23:30,0.156,0.144,0.226,0.220,0.222,0.124,0.079,southwest,3.0,No
2022/04/09,23:40,0.158,0.143,0.227,0.219,0.224,0.124,0.080,southwest,2.2,No
2022/04/09,23:50,0.157,0.143,0.228,0.220,0.222,0.124,0.080,southwest,2.1,No
